Regional Weather Roundup
Issued by NWS Wilmington, NC

Home | Current Version | Previous Version | Text Only | Print | Product List | Glossary On
Versions: 1 2 3 4 5 6 7 8 9 10 11 12 13 14 15 16 17 18 19 20 21 22 23 24 25 26 27
000
ASUS42 KILM 202013
RWRILM
RWRILM
REGIONAL HOURLY WEATHER ROUNDUP
NATIONAL WEATHER SERVICE WILMINGTON NC
400 PM EDT WED SEP 20 2017

NOTE: "FAIR" INDICATES FEW OR NO CLOUDS BELOW 12,000 FEET WITH NO
SIGNIFICANT WEATHER AND/OR OBSTRUCTIONS TO VISIBILITY.

...............WFO WILMINGTON COUNTY WARNING AREA...............

......COASTAL NC AND SC COUNTIES......

CITY           SKY/WX    TMP DP  RH WIND       PRES   REMARKS
WILMINGTON     MOSUNNY   90  64  42 VRB5      29.95F HX  91
N MYRTLE BEACH MOSUNNY   85  73  67 S10       29.96F HX  91
MYRTLE BEACH   MOSUNNY   85  74  69 S14       29.97F HX  92

......INLAND NC AND SC COUNTIES.......

CITY           SKY/WX    TMP DP  RH WIND       PRES   REMARKS
LUMBERTON      SUNNY     88  68  51 SW7       29.94F HX  91
ELIZABETHTOWN  NOT AVBL
WHITEVILLE     SUNNY     89  65  45 NW5       29.95F HX  90
FLORENCE       PTSUNNY   88  69  53 SW6       29.96F HX  92
DARLINGTON     MOSUNNY   85  74  69 NE6       29.97F HX  92
KINGSTREE      FAIR      88  64  45 W3        29.96F
HARTSVILLE     FAIR      90  68  48 W5        29.97S HX  93
BENNETTSVILLE  FAIR      86  70  58 SW8       29.96S HX  90
CONWAY         FAIR      88  66  48 CALM      29.96F HX  90
GEORGETOWN     FAIR      88  66  48 NW7       29.98F HX  90
MARION         FAIR      88  64  45 W6        29.96F HAZE

....................REST OF NORTH CAROLINA......................

.........EASTERN NC.........

CITY           SKY/WX    TMP DP  RH WIND       PRES   REMARKS
CAPE HATTERAS  SUNNY     84  72  67 W8        29.93F
JACKSONVILLE   MOSUNNY   90  70  51 W6        29.95F HX  95
MOREHEAD CITY  SUNNY     85  72  65 SW10      29.94F HX  91
KENANSVILLE    MOSUNNY   90  68  48 W9        29.95F HX  93
NEW BERN       MOSUNNY   89  69  51 W8        29.94F HX  93
ELIZABETH CITY SUNNY     88  66  48 NW10      29.92F HX  90

.........CENTRAL NC.........

CITY           SKY/WX    TMP DP  RH WIND       PRES   REMARKS
RALEIGH DURHAM MOSUNNY   87  61  41 NW7       29.95F
ROCKY MOUNT    SUNNY     88  67  49 NW6       29.93F HX  91
ROANOKE RAPIDS NOT AVBL
FAYETTEVILLE   SUNNY     91  69  48 CALM      29.94F HX  96
HOFFMAN        MOSUNNY   88  69  52 NW3       29.95F HX  92

.........WESTERN NC.........

CITY           SKY/WX    TMP DP  RH WIND       PRES   REMARKS
CHARLOTTE      MOSUNNY   89  65  44 N3        29.99F HX  91
GREENSBORO     MOSUNNY   87  65  47 W9        29.97F
HICKORY        NOT AVBL
BOONE          NOT AVBL
ASHEVILLE      NOT AVBL

.....................REST OF SOUTH CAROLINA.....................

.........EASTERN SC.........

CITY           SKY/WX    TMP DP  RH WIND       PRES   REMARKS
CHARLESTON     MOSUNNY   91  69  48 W3        29.96F HX  96
BEAUFORT MCAS  PTSUNNY   89  73  59 CALM      29.97F HX  97
HILTON HEAD    MOSUNNY   82  73  74 SE7       29.99F

.........CENTRAL SC.........

CITY           SKY/WX    TMP DP  RH WIND       PRES   REMARKS
COLUMBIA       MOSUNNY   94  65  38 VRB3      29.96F HX  96
ORANGEBURG     SUNNY     90  64  42 W7        29.96F HX  91
SUMTER SHAW    MOSUNNY   86  68  54 S8        29.94F

.........WESTERN SC.........

CITY           SKY/WX    TMP DP  RH WIND       PRES   REMARKS
GREENVILLE     NOT AVBL
ROCK HILL        N/A    N/A N/A N/A MISG      29.99F
ANDERSON       MOSUNNY   89  65  44 W7        29.99F HX  91
CLEMSON        NOT AVBL
GREENWOOD      MOSUNNY   88  66  48 CALM      30.00F HX  90


...................COASTAL AND OFFSHORE REPORTS..................

................LOCAL PIERS AND NC RESERVE................


STATION/POSITION TIME  SKY/WX   TEMP    WIND        PRES    VSBY
                                AIR SEA DIR/SP/G
                 (UTC)          (F)     (DEG/KT/KT) (MB)    (MI)
JOHNY MRCER PIER 1948            82 80  180/ 14/ 15 1013.5F
NC RESRV MASNBRO 1845            90     290/  2     1016.0
OCEAN CREST PIER NOT AVBL
SPRINGMAID  PIER 1948                               1014.3F


................COASTAL AND OFFSHORE BUOYS................


STATION/POSITION TIME  SKY/WX   TEMP    WIND        PRES    VSBY
                                AIR SEA DIR/SP/G
                 (UTC)          (F)     (DEG/KT/KT) (MB)    (MI)
DIMNDSHOAL 41025 1950            78 76  260/  6/  8 1013.8F
WVE H/P(F/S)=  5/11 SWL H/P/D(F/S/D)=  5/ 80/11

CAPE LOOKOUT     2000            81     220/  9/ 12 1013.7F
ONSLOW BAY 41036 NOT AVBL
ONSLOW BAY 41064 1908            80     240/  8/ 12 1014.6F
ONSLOW BAY 41159 NOT AVBL
MASNBO INL 41110 1959               80                N/A
WVE H/P(F/S)=  2/11 SWL H/P/D(F/S/D)=  2/ 90/11

WILM HARBR 41108 2000               80                N/A
WVE H/P(F/S)=  2/12 SWL H/P/D(F/S/D)=  2/120/12

27SE WRITB 41037 1908            80 80  210/  8/ 12 1015.0F
FRYING PAN 41013 2000            80 82  250/  8/ 10 1014.7
SUNST NRSH 41024 1908            80 80  220/  8/ 12 1014.8F
CAPRS NRSH 41029 1908            80 82  210/ 10/ 14 1015.3F
EDISTO     41004 1950            81 83  220/  4/  6 1015.1F
WVE H/P(F/S)=  3/11 SWL H/P/D(F/S/D)=  3/ 90/11



..........OFFSHORE BUOYS BEYOND 100 NM OFFSHORE...........
.....IN A TRIANGLE---HAT TO BERMUDA TO BAHAMAS TO HAT.....


STATION/POSITION TIME  SKY/WX   TEMP    WIND        PRES    VSBY
                                AIR SEA DIR/SP/G
                 (UTC)          (F)     (DEG/KT/KT) (MB)    (MI)
150E HAT   41001 NOT AVBL
W BERMUDA  41048 2000            80 80  270/ 10/ 12 1015.7
ATLANTIC S 41049 1950            80 84  200/  8/ 10 1017.7F
WVE H/P(F/S)=  7/11 SWL H/P/D(F/S/D)=  7/290/11

E BAHAMAS  41046 2000            83 85   60/ 16/ 17 1013.4
NE BAHAMAS 41047 2000            83 84  100/  4/  8 1015.6
120E CANVRL41010 1950               85   20/  8/ 10 1015.5F
WVE H/P(F/S)=  7/14 SWL H/P/D(F/S/D)=  7/14


END




USA.gov is the U.S. government's official web portal to all federal, state and local government web resources and services.